| time (UTC) | temp F | wind direction | speed MPH | gust MPH | rain 1hr in | rain 24hr in | rain mn in | humidity % | barometer mb |
| 20260507195017 | 59 | 144 | 2.0 | 7.0 | 0.00 | 0.30 | 0.30 | 59 | 1010.1 |
| 20260507194036 | 59 | 119 | 1.0 | 3.0 | 0.00 | 0.30 | 0.30 | 60 | 1010.0 |
| 20260507194017 | 59 | 110 | 1.0 | 3.0 | 0.00 | 0.30 | 0.30 | 60 | 1010.1 |
| 20260507193036 | 59 | 100 | 3.0 | 7.0 | 0.00 | 0.30 | 0.30 | 59 | 1009.9 |
| 20260507193018 | 59 | 99 | 3.0 | 7.0 | 0.00 | 0.30 | 0.30 | 60 | 1009.9 |
| 20260507192017 | 59 | 96 | 3.0 | 7.0 | 0.00 | 0.30 | 0.30 | 58 | 1010.3 |
| 20260507191056 | 60 | 100 | 3.0 | 7.0 | 0.00 | 0.30 | 0.30 | 59 | 1010.4 |
| 20260507191018 | 60 | 99 | 3.0 | 7.0 | 0.00 | 0.30 | 0.30 | 59 | 1010.5 |
| 20260507190016 | 59 | 153 | 2.0 | 6.0 | 0.00 | 0.30 | 0.30 | 58 | 1010.4 |
| 20260507185056 | 59 | 133 | 1.0 | 6.0 | 0.00 | 0.30 | 0.30 | 59 | 1010.8 |
| 20260507185037 | 59 | 99 | 1.0 | 6.0 | 0.00 | 0.30 | 0.30 | 59 | 1010.9 |
| 20260507184057 | 58 | 138 | 2.0 | 7.0 | 0.00 | 0.30 | 0.30 | 59 | 1011.0 |
| 20260507184017 | 58 | 139 | 2.0 | 6.0 | 0.00 | 0.30 | 0.30 | 59 | 1011.2 |
| 20260507183017 | 58 | 96 | 0.0 | 2.0 | 0.00 | 0.30 | 0.30 | 64 | 1010.9 |
| 20260507182156 | 57 | 113 | 1.0 | 5.0 | 0.00 | 0.30 | 0.30 | 63 | 1010.9 |
| 20260507182036 | 57 | 109 | 1.0 | 4.0 | 0.00 | 0.30 | 0.30 | 63 | 1011.0 |
| 20260507181017 | 57 | 111 | 1.0 | 3.0 | 0.00 | 0.30 | 0.30 | 65 | 1011.5 |
| 20260507180016 | 57 | 152 | 1.0 | 4.0 | 0.00 | 0.30 | 0.30 | 61 | 1011.2 |
| 20260507175016 | 57 | 198 | 1.0 | 4.0 | 0.00 | 0.30 | 0.30 | 63 | 1011.6 |
| 20260507174036 | 57 | 209 | 1.0 | 3.0 | 0.00 | 0.30 | 0.30 | 65 | 1011.5 |
| 20260507174016 | 57 | 210 | 1.0 | 3.0 | 0.00 | 0.30 | 0.30 | 65 | 1011.6 |
| 20260507173016 | 57 | 124 | 0.0 | 3.0 | 0.00 | 0.30 | 0.30 | 63 | 1011.7 |
| 20260507172036 | 57 | 119 | 1.0 | 3.0 | 0.00 | 0.30 | 0.30 | 60 | 1011.8 |
| 20260507172016 | 57 | 116 | 1.0 | 3.0 | 0.00 | 0.30 | 0.30 | 60 | 1011.9 |
| 20260507171016 | 57 | 110 | 1.0 | 3.0 | 0.00 | 0.30 | 0.30 | 60 | 1012.4 |
| 20260507170016 | 57 | 38 | 0.0 | 1.0 | 0.00 | 0.30 | 0.30 | 64 | 1012.5 |
| 20260507165016 | 57 | 83 | 0.0 | 2.0 | 0.00 | 0.30 | 0.30 | 59 | 1012.4 |
| 20260507164017 | 57 | 313 | 0.0 | 2.0 | 0.00 | 0.30 | 0.30 | 60 | 1012.6 |
| 20260507163016 | 56 | 319 | 1.0 | 3.0 | 0.00 | 0.30 | 0.30 | 61 | 1012.3 |
| 20260507162016 | 56 | 354 | 1.0 | 3.0 | 0.00 | 0.30 | 0.30 | 60 | 1012.6 |
| 20260507161018 | 56 | 22 | 1.0 | 3.0 | 0.00 | 0.30 | 0.30 | 60 | 1012.8 |
| 20260507161016 | 56 | 26 | 1.0 | 3.0 | 0.00 | 0.30 | 0.30 | 60 | 1012.6 |
| 20260507160056 | 55 | 356 | 1.0 | 2.0 | 0.00 | 0.30 | 0.30 | 63 | 1012.8 |
| 20260507160015 | 55 | 358 | 1.0 | 2.0 | 0.00 | 0.30 | 0.30 | 63 | 1013.0 |
| 20260507155116 | 55 | 355 | 1.0 | 3.0 | 0.00 | 0.30 | 0.30 | 64 | 1012.9 |
| 20260507155015 | 55 | 356 | 1.0 | 3.0 | 0.00 | 0.30 | 0.30 | 64 | 1013.0 |
| 20260507154057 | 55 | 358 | 0.0 | 1.0 | 0.00 | 0.30 | 0.30 | 68 | 1013.0 |
| 20260507154016 | 55 | 352 | 0.0 | 1.0 | 0.00 | 0.30 | 0.30 | 68 | 1012.9 |
| 20260507153016 | 55 | 5 | 0.0 | 2.0 | 0.00 | 0.30 | 0.30 | 67 | 1013.0 |
| 20260507152036 | 55 | 355 | 1.0 | 3.0 | 0.00 | 0.30 | 0.30 | 66 | 1013.1 |
| 20260507152015 | 55 | 353 | 1.0 | 3.0 | 0.00 | 0.30 | 0.30 | 66 | 1012.9 |
| 20260507151016 | 55 | 4 | 2.0 | 4.0 | 0.00 | 0.30 | 0.30 | 64 | 1013.1 |
| 20260507150016 | 55 | 17 | 1.0 | 4.0 | 0.00 | 0.30 | 0.30 | 66 | 1013.1 |
| 20260507145056 | 55 | 360 | 1.0 | 4.0 | 0.00 | 0.31 | 0.30 | 72 | 1013.2 |
| 20260507145016 | 55 | 360 | 1.0 | 4.0 | 0.00 | 0.31 | 0.30 | 73 | 1013.4 |
| 20260507144036 | 55 | 334 | 0.0 | 3.0 | 0.00 | 0.33 | 0.30 | 76 | 1013.3 |
| 20260507144016 | 55 | 341 | 0.0 | 2.0 | 0.00 | 0.33 | 0.30 | 76 | 1013.5 |
| 20260507143036 | 55 | 339 | 0.0 | 1.0 | 0.00 | 0.36 | 0.30 | 77 | 1013.5 |
| 20260507143017 | 55 | 357 | 0.0 | 1.0 | 0.00 | 0.36 | 0.30 | 77 | 1013.7 |
| 20260507142017 | 55 | 348 | 0.0 | 1.0 | 0.00 | 0.37 | 0.30 | 78 | 1013.7 |
| 20260507141058 | 55 | 321 | 1.0 | 4.0 | 0.00 | 0.37 | 0.30 | 78 | 1013.5 |
| 20260507141016 | 55 | 322 | 1.0 | 4.0 | 0.00 | 0.37 | 0.30 | 78 | 1013.7 |
| 20260507140018 | 55 | 343 | 0.0 | 2.0 | 0.00 | 0.38 | 0.30 | 79 | 1013.4 |
| 20260507140016 | 55 | 351 | 0.0 | 2.0 | 0.00 | 0.38 | 0.30 | 79 | 1013.7 |
| 20260507135019 | 54 | 337 | 0.0 | 1.0 | 0.00 | 0.40 | 0.30 | 78 | 1013.6 |
| 20260507135016 | 54 | 348 | 0.0 | 1.0 | 0.00 | 0.40 | 0.30 | 78 | 1013.9 |
| 20260507134018 | 54 | 0.0 | 0.0 | 0.00 | 0.42 | 0.30 | 77 | 1013.8 | |
| 20260507133017 | 54 | 353 | 0.0 | 1.0 | 0.00 | 0.46 | 0.30 | 77 | 1013.8 |
| 20260507132118 | 54 | 352 | 0.0 | 2.0 | 0.00 | 0.47 | 0.30 | 75 | 1013.4 |
| 20260507132017 | 54 | 358 | 0.0 | 2.0 | 0.00 | 0.47 | 0.30 | 75 | 1013.6 |
| 20260507131039 | 54 | 344 | 0.0 | 3.0 | 0.00 | 0.48 | 0.30 | 75 | 1013.3 |
| 20260507131017 | 54 | 347 | 0.0 | 3.0 | 0.00 | 0.48 | 0.30 | 75 | 1013.5 |
| 20260507130019 | 54 | 6 | 0.0 | 4.0 | 0.00 | 0.50 | 0.30 | 76 | 1013.5 |
| 20260507130016 | 54 | 4 | 0.0 | 2.0 | 0.00 | 0.50 | 0.30 | 76 | 1013.7 |
| 20260507125058 | 54 | 358 | 1.0 | 4.0 | 0.00 | 0.50 | 0.30 | 78 | 1013.3 |
| 20260507125017 | 54 | 0 | 1.0 | 4.0 | 0.00 | 0.50 | 0.30 | 78 | 1013.5 |
| 20260507124019 | 54 | 329 | 0.0 | 3.0 | 0.00 | 0.50 | 0.30 | 81 | 1013.3 |
| 20260507123057 | 54 | 327 | 0.0 | 3.0 | 0.00 | 0.50 | 0.30 | 83 | 1013.5 |
| 20260507123018 | 54 | 327 | 0.0 | 3.0 | 0.00 | 0.50 | 0.30 | 83 | 1013.3 |
| 20260507122019 | 54 | 358 | 1.0 | 4.0 | 0.00 | 0.50 | 0.30 | 85 | 1013.1 |
| 20260507122016 | 54 | 1 | 1.0 | 4.0 | 0.00 | 0.50 | 0.30 | 85 | 1013.3 |
| 20260507121017 | 54 | 353 | 1.0 | 5.0 | 0.00 | 0.50 | 0.30 | 87 | 1013.0 |
| 20260507120018 | 54 | 337 | 0.0 | 2.0 | 0.00 | 0.51 | 0.30 | 88 | 1013.3 |
| 20260507120016 | 54 | 356 | 0.0 | 1.0 | 0.00 | 0.51 | 0.30 | 88 | 1013.5 |
| 20260507115018 | 54 | 330 | 1.0 | 3.0 | 0.00 | 0.51 | 0.30 | 88 | 1013.1 |
| 20260507115016 | 54 | 337 | 1.0 | 3.0 | 0.00 | 0.51 | 0.30 | 88 | 1013.3 |
| 20260507114158 | 54 | 308 | 0.0 | 2.0 | 0.00 | 0.51 | 0.30 | 89 | 1012.8 |
| 20260507114016 | 54 | 318 | 0.0 | 2.0 | 0.00 | 0.51 | 0.30 | 89 | 1013.0 |
| 20260507113038 | 54 | 312 | 0.0 | 1.0 | 0.00 | 0.51 | 0.30 | 88 | 1012.7 |
| 20260507113016 | 54 | 335 | 0.0 | 1.0 | 0.00 | 0.51 | 0.30 | 88 | 1012.9 |
| 20260507112038 | 54 | 349 | 0.0 | 2.0 | 0.00 | 0.51 | 0.30 | 89 | 1012.5 |
| 20260507112036 | 54 | 3 | 0.0 | 2.0 | 0.00 | 0.51 | 0.30 | 89 | 1012.8 |
| 20260507111058 | 54 | 334 | 0.0 | 2.0 | 0.00 | 0.51 | 0.30 | 89 | 1012.7 |
| 20260507111036 | 54 | 343 | 0.0 | 2.0 | 0.00 | 0.51 | 0.30 | 89 | 1012.9 |
| 20260507110018 | 54 | 0.0 | 2.0 | 0.00 | 0.51 | 0.30 | 89 | 1012.5 | |
| 20260507110016 | 54 | 0.0 | 0.0 | 0.00 | 0.51 | 0.30 | 89 | 1012.8 | |
| 20260507105018 | 54 | 332 | 0.0 | 1.0 | 0.01 | 0.51 | 0.30 | 89 | 1012.6 |
| 20260507105016 | 54 | 345 | 0.0 | 1.0 | 0.01 | 0.51 | 0.30 | 89 | 1012.8 |
| 20260507104018 | 54 | 342 | 0.0 | 2.0 | 0.01 | 0.51 | 0.30 | 89 | 1012.3 |
| 20260507104016 | 54 | 356 | 0.0 | 1.0 | 0.01 | 0.51 | 0.30 | 89 | 1012.5 |
| 20260507103036 | 54 | 352 | 0.0 | 1.0 | 0.01 | 0.51 | 0.30 | 89 | 1012.3 |
| 20260507103016 | 54 | 359 | 0.0 | 1.0 | 0.01 | 0.51 | 0.30 | 89 | 1012.5 |
| 20260507102138 | 54 | 351 | 0.0 | 2.0 | 0.01 | 0.51 | 0.30 | 89 | 1012.2 |
| 20260507102017 | 54 | 353 | 0.0 | 2.0 | 0.01 | 0.51 | 0.30 | 89 | 1012.4 |
| 20260507101017 | 54 | 0.0 | 0.0 | 0.01 | 0.51 | 0.30 | 89 | 1012.4 | |
| 20260507100038 | 54 | 0.0 | 0.0 | 0.01 | 0.51 | 0.30 | 89 | 1012.2 | |
| 20260507100016 | 54 | 0.0 | 0.0 | 0.01 | 0.51 | 0.30 | 89 | 1012.4 | |
| 20260507095159 | 54 | 0.0 | 0.0 | 0.00 | 0.50 | 0.29 | 89 | 1012.1 | |
| 20260507095016 | 54 | 0.0 | 0.0 | 0.00 | 0.50 | 0.29 | 89 | 1012.3 | |
| 20260507094018 | 54 | 0.0 | 0.0 | 0.00 | 0.50 | 0.29 | 89 | 1012.1 | |
| 20260507094016 | 54 | 0.0 | 0.0 | 0.00 | 0.50 | 0.29 | 89 | 1012.3 | |
| 20260507093016 | 54 | 0.0 | 0.0 | 0.00 | 0.50 | 0.29 | 89 | 1012.3 | |
| 20260507092038 | 54 | 0.0 | 0.0 | 0.00 | 0.50 | 0.29 | 89 | 1011.8 | |
| 20260507092016 | 54 | 0.0 | 0.0 | 0.00 | 0.50 | 0.29 | 89 | 1012.0 | |
| 20260507091018 | 54 | 322 | 0.0 | 1.0 | 0.00 | 0.50 | 0.29 | 89 | 1011.9 |
| 20260507090037 | 54 | 327 | 0.0 | 2.0 | 0.00 | 0.50 | 0.29 | 89 | 1012.1 |
| 20260507090018 | 54 | 311 | 0.0 | 2.0 | 0.00 | 0.50 | 0.29 | 89 | 1011.9 |
| 20260507085038 | 54 | 0.0 | 0.0 | 0.00 | 0.50 | 0.29 | 89 | 1011.9 | |
| 20260507085017 | 54 | 0.0 | 0.0 | 0.00 | 0.50 | 0.29 | 89 | 1012.1 | |
| 20260507084036 | 54 | 352 | 0.0 | 1.0 | 0.00 | 0.50 | 0.29 | 89 | 1011.7 |
| 20260507084017 | 54 | 355 | 0.0 | 1.0 | 0.00 | 0.50 | 0.29 | 89 | 1011.9 |
| 20260507083018 | 54 | 352 | 0.0 | 1.0 | 0.00 | 0.50 | 0.29 | 88 | 1011.9 |
| 20260507082158 | 54 | 309 | 0.0 | 2.0 | 0.00 | 0.50 | 0.29 | 89 | 1011.8 |
| 20260507082016 | 54 | 325 | 0.0 | 1.0 | 0.00 | 0.50 | 0.29 | 89 | 1012.0 |
| 20260507081038 | 55 | 309 | 0.0 | 2.0 | 0.00 | 0.50 | 0.29 | 89 | 1011.6 |
| 20260507081016 | 55 | 315 | 0.0 | 2.0 | 0.00 | 0.50 | 0.29 | 89 | 1011.8 |
| 20260507080158 | 55 | 320 | 0.0 | 2.0 | 0.00 | 0.50 | 0.29 | 89 | 1011.3 |
| 20260507080016 | 55 | 335 | 0.0 | 2.0 | 0.00 | 0.50 | 0.29 | 89 | 1011.5 |
| 20260507075136 | 55 | 332 | 1.0 | 2.0 | 0.00 | 0.50 | 0.29 | 89 | 1011.4 |
| 20260507075018 | 55 | 321 | 1.0 | 2.0 | 0.00 | 0.50 | 0.29 | 89 | 1011.2 |
| 20260507074036 | 55 | 305 | 1.0 | 3.0 | 0.00 | 0.50 | 0.29 | 89 | 1011.3 |
| 20260507074016 | 55 | 314 | 1.0 | 2.0 | 0.00 | 0.50 | 0.29 | 89 | 1011.5 |
| 20260507073036 | 55 | 347 | 1.0 | 4.0 | 0.00 | 0.50 | 0.29 | 89 | 1011.2 |
| 20260507073015 | 55 | 344 | 1.0 | 4.0 | 0.00 | 0.50 | 0.29 | 89 | 1011.0 |
| 20260507072017 | 55 | 352 | 1.0 | 3.0 | 0.00 | 0.50 | 0.29 | 89 | 1011.2 |
| 20260507072015 | 55 | 353 | 1.0 | 3.0 | 0.00 | 0.50 | 0.29 | 89 | 1011.0 |
| 20260507071017 | 56 | 336 | 1.0 | 3.0 | 0.00 | 0.50 | 0.29 | 89 | 1011.1 |
| 20260507071015 | 56 | 333 | 1.0 | 4.0 | 0.00 | 0.50 | 0.29 | 89 | 1010.9 |
| 20260507070018 | 56 | 338 | 1.0 | 2.0 | 0.00 | 0.50 | 0.29 | 89 | 1011.0 |
| 20260507070015 | 56 | 337 | 1.0 | 2.0 | 0.00 | 0.50 | 0.29 | 89 | 1010.8 |
| 20260507065016 | 56 | 353 | 1.0 | 3.0 | 0.00 | 0.50 | 0.29 | 88 | 1011.0 |
| 20260507064016 | 56 | 320 | 2.0 | 5.0 | 0.00 | 0.50 | 0.29 | 89 | 1011.2 |
| 20260507063018 | 56 | 3 | 1.0 | 5.0 | 0.01 | 0.50 | 0.29 | 89 | 1011.1 |
| 20260507063016 | 56 | 1 | 1.0 | 5.0 | 0.01 | 0.50 | 0.29 | 89 | 1010.9 |
| 20260507062035 | 57 | 321 | 1.0 | 4.0 | 0.02 | 0.50 | 0.29 | 89 | 1011.0 |
| 20260507062020 | 57 | 323 | 1.0 | 4.0 | 0.02 | 0.50 | 0.29 | 89 | 1011.2 |
| 20260507061037 | 57 | 329 | 2.0 | 7.0 | 0.03 | 0.50 | 0.29 | 89 | 1011.0 |
| 20260507061015 | 57 | 328 | 2.0 | 9.0 | 0.03 | 0.50 | 0.29 | 89 | 1010.8 |
| 20260507060056 | 58 | 334 | 1.0 | 4.0 | 0.03 | 0.50 | 0.29 | 89 | 1010.4 |
| 20260507060017 | 58 | 336 | 1.0 | 3.0 | 0.03 | 0.50 | 0.29 | 89 | 1010.7 |
| 20260507055019 | 58 | 4 | 1.0 | 4.0 | 0.04 | 0.50 | 0.29 | 88 | 1010.6 |
| 20260507055016 | 58 | 4 | 1.0 | 4.0 | 0.04 | 0.50 | 0.29 | 88 | 1010.4 |
| 20260507054056 | 58 | 346 | 0.0 | 2.0 | 0.06 | 0.50 | 0.29 | 88 | 1011.1 |
| 20260507054015 | 58 | 339 | 0.0 | 2.0 | 0.06 | 0.50 | 0.29 | 88 | 1010.9 |
| 20260507053018 | 58 | 356 | 0.0 | 1.0 | 0.09 | 0.49 | 0.28 | 87 | 1011.3 |
| 20260507053015 | 58 | 332 | 0.0 | 2.0 | 0.09 | 0.49 | 0.28 | 87 | 1011.1 |
| 20260507052018 | 59 | 46 | 1.0 | 2.0 | 0.24 | 0.48 | 0.27 | 86 | 1011.0 |
| 20260507051038 | 59 | 355 | 0.0 | 1.0 | 0.26 | 0.47 | 0.26 | 85 | 1011.1 |
| 20260507051015 | 59 | 349 | 0.0 | 2.0 | 0.26 | 0.47 | 0.26 | 85 | 1010.9 |
| 20260507050116 | 59 | 358 | 0.0 | 3.0 | 0.26 | 0.47 | 0.26 | 84 | 1010.7 |
| 20260507050018 | 59 | 359 | 0.0 | 3.0 | 0.26 | 0.47 | 0.26 | 84 | 1010.9 |
| 20260507045018 | 60 | 0.0 | 0.0 | 0.25 | 0.46 | 0.25 | 83 | 1011.0 | |
| 20260507045015 | 60 | 0.0 | 2.0 | 0.25 | 0.46 | 0.25 | 83 | 1010.8 | |
| 20260507044017 | 61 | 355 | 1.0 | 4.0 | 0.23 | 0.44 | 0.23 | 82 | 1011.1 |
| 20260507044015 | 61 | 354 | 1.0 | 4.0 | 0.23 | 0.44 | 0.23 | 82 | 1010.9 |
| 20260507043037 | 62 | 347 | 1.0 | 4.0 | 0.19 | 0.40 | 0.19 | 80 | 1011.4 |
| 20260507043018 | 62 | 347 | 1.0 | 5.0 | 0.19 | 0.40 | 0.19 | 80 | 1011.2 |
| 20260507042118 | 62 | 342 | 1.0 | 3.0 | 0.03 | 0.24 | 0.03 | 77 | 1010.9 |
| 20260507042016 | 62 | 345 | 1.0 | 3.0 | 0.03 | 0.24 | 0.03 | 77 | 1011.2 |
| 20260507041018 | 63 | 352 | 2.0 | 5.0 | 0.00 | 0.21 | 0.00 | 74 | 1010.8 |
| 20260507040117 | 63 | 356 | 2.0 | 9.0 | 0.00 | 0.21 | 0.00 | 72 | 1010.6 |
| 20260507040019 | 63 | 357 | 3.0 | 9.0 | 0.00 | 0.21 | 0.00 | 72 | 1010.9 |
| 20260507035038 | 64 | 343 | 3.0 | 10.0 | 0.00 | 0.21 | 0.21 | 72 | 1010.5 |
| 20260507035017 | 64 | 342 | 3.0 | 10.0 | 0.00 | 0.21 | 0.21 | 72 | 1010.7 |
| 20260507034037 | 65 | 341 | 3.0 | 8.0 | 0.00 | 0.21 | 0.21 | 74 | 1010.5 |
| 20260507034019 | 65 | 343 | 3.0 | 8.0 | 0.00 | 0.21 | 0.21 | 74 | 1010.7 |
| 20260507033058 | 65 | 336 | 1.0 | 7.0 | 0.00 | 0.21 | 0.21 | 77 | 1010.6 |
| 20260507033038 | 65 | 340 | 1.0 | 7.0 | 0.00 | 0.21 | 0.21 | 77 | 1010.9 |
| 20260507032038 | 66 | 332 | 2.0 | 5.0 | 0.00 | 0.21 | 0.21 | 79 | 1010.4 |
| 20260507031018 | 66 | 2 | 2.0 | 8.0 | 0.00 | 0.21 | 0.21 | 79 | 1010.3 |
| 20260507030018 | 67 | 10 | 2.0 | 5.0 | 0.00 | 0.21 | 0.21 | 80 | 1009.5 |
| 20260507025138 | 67 | 354 | 0.0 | 3.0 | 0.00 | 0.21 | 0.21 | 79 | 1010.0 |
| 20260507025016 | 67 | 355 | 0.0 | 3.0 | 0.00 | 0.21 | 0.21 | 79 | 1010.3 |
| 20260507024057 | 67 | 326 | 1.0 | 3.0 | 0.00 | 0.21 | 0.21 | 80 | 1009.8 |
| 20260507024017 | 67 | 329 | 1.0 | 3.0 | 0.00 | 0.21 | 0.21 | 80 | 1010.1 |
| 20260507023018 | 67 | 309 | 0.0 | 3.0 | 0.00 | 0.21 | 0.21 | 81 | 1009.7 |
| 20260507022037 | 68 | 224 | 1.0 | 4.0 | 0.00 | 0.21 | 0.21 | 81 | 1009.6 |
| 20260507022018 | 68 | 228 | 1.0 | 4.0 | 0.00 | 0.21 | 0.21 | 81 | 1009.8 |
| 20260507021017 | 68 | 332 | 1.0 | 3.0 | 0.00 | 0.21 | 0.21 | 81 | 1009.1 |
| 20260507021015 | 68 | 335 | 1.0 | 3.0 | 0.00 | 0.21 | 0.21 | 81 | 1009.4 |
| 20260507020018 | 69 | 328 | 0.0 | 2.0 | 0.00 | 0.21 | 0.21 | 80 | 1009.8 |
| 20260507015018 | 69 | 210 | 1.0 | 4.0 | 0.00 | 0.21 | 0.21 | 79 | 1009.6 |
| 20260507015016 | 69 | 213 | 1.0 | 4.0 | 0.00 | 0.21 | 0.21 | 79 | 1009.9 |
| 20260507014037 | 69 | 213 | 0.0 | 3.0 | 0.00 | 0.21 | 0.21 | 78 | 1009.5 |
| 20260507014017 | 69 | 218 | 0.0 | 2.0 | 0.00 | 0.21 | 0.21 | 78 | 1009.8 |
| 20260507013017 | 69 | 209 | 0.0 | 3.0 | 0.00 | 0.21 | 0.21 | 78 | 1009.6 |
| 20260507013015 | 69 | 217 | 0.0 | 3.0 | 0.00 | 0.21 | 0.21 | 78 | 1010.0 |
| 20260507012117 | 69 | 198 | 0.0 | 2.0 | 0.00 | 0.21 | 0.21 | 77 | 1009.6 |
| 20260507012019 | 69 | 201 | 0.0 | 2.0 | 0.00 | 0.21 | 0.21 | 77 | 1009.9 |
| 20260507010017 | 69 | 203 | 1.0 | 3.0 | 0.00 | 0.21 | 0.21 | 77 | 1010.2 |
| 20260507005036 | 69 | 339 | 0.0 | 1.0 | 0.00 | 0.21 | 0.21 | 77 | 1010.0 |
| 20260507005017 | 69 | 205 | 0.0 | 1.0 | 0.00 | 0.21 | 0.21 | 77 | 1009.7 |
| 20260507004017 | 69 | 205 | 0.0 | 4.0 | 0.00 | 0.21 | 0.21 | 76 | 1009.4 |
| 20260507003117 | 70 | 189 | 0.0 | 1.0 | 0.00 | 0.21 | 0.21 | 76 | 1009.4 |
| 20260507003018 | 70 | 275 | 0.0 | 1.0 | 0.00 | 0.21 | 0.21 | 76 | 1009.7 |
| 20260507002018 | 70 | 208 | 0.0 | 3.0 | 0.00 | 0.21 | 0.21 | 76 | 1009.8 |
| 20260507001018 | 70 | 201 | 1.0 | 5.0 | 0.00 | 0.21 | 0.21 | 75 | 1009.7 |
| 20260507000137 | 70 | 188 | 1.0 | 4.0 | 0.00 | 0.21 | 0.21 | 76 | 1008.9 |
| 20260507000018 | 70 | 189 | 1.0 | 3.0 | 0.00 | 0.21 | 0.21 | 76 | 1009.3 |
| 20260506235137 | 70 | 232 | 1.0 | 5.0 | 0.00 | 0.21 | 0.21 | 75 | 1009.0 |
| 20260506235018 | 70 | 240 | 1.0 | 3.0 | 0.00 | 0.21 | 0.21 | 75 | 1009.4 |
| 20260506234018 | 70 | 239 | 1.0 | 3.0 | 0.00 | 0.21 | 0.21 | 75 | 1009.1 |
| 20260506233037 | 70 | 210 | 1.0 | 3.0 | 0.00 | 0.21 | 0.21 | 75 | 1008.7 |
| 20260506233018 | 70 | 213 | 1.0 | 3.0 | 0.00 | 0.21 | 0.21 | 75 | 1009.0 |
| 20260506232018 | 70 | 218 | 1.0 | 4.0 | 0.00 | 0.21 | 0.21 | 75 | 1009.1 |
| 20260506231058 | 70 | 217 | 1.0 | 5.0 | 0.00 | 0.21 | 0.21 | 74 | 1008.7 |
| 20260506231018 | 70 | 219 | 1.0 | 5.0 | 0.00 | 0.21 | 0.21 | 74 | 1009.1 |
| 20260506230018 | 70 | 218 | 1.0 | 3.0 | 0.00 | 0.21 | 0.21 | 74 | 1009.0 |
| 20260506225058 | 71 | 209 | 2.0 | 6.0 | 0.00 | 0.21 | 0.21 | 74 | 1008.7 |
| 20260506225036 | 71 | 210 | 2.0 | 6.0 | 0.00 | 0.21 | 0.21 | 74 | 1009.0 |
| 20260506224037 | 71 | 211 | 2.0 | 8.0 | 0.00 | 0.21 | 0.21 | 74 | 1008.6 |
| 20260506224016 | 71 | 211 | 2.0 | 8.0 | 0.00 | 0.21 | 0.21 | 74 | 1009.0 |
| 20260506223117 | 70 | 205 | 1.0 | 5.0 | 0.00 | 0.21 | 0.21 | 74 | 1008.7 |
| 20260506223037 | 70 | 209 | 1.0 | 5.0 | 0.00 | 0.21 | 0.21 | 74 | 1009.1 |
| 20260506222038 | 70 | 208 | 1.0 | 4.0 | 0.00 | 0.21 | 0.21 | 74 | 1009.2 |
| 20260506222017 | 70 | 202 | 1.0 | 4.0 | 0.00 | 0.21 | 0.21 | 74 | 1008.8 |
| 20260506221037 | 70 | 193 | 2.0 | 6.0 | 0.00 | 0.21 | 0.21 | 74 | 1008.8 |
| 20260506221017 | 70 | 193 | 2.0 | 6.0 | 0.00 | 0.21 | 0.21 | 74 | 1009.1 |
| 20260506220019 | 70 | 206 | 3.0 | 9.0 | 0.00 | 0.21 | 0.21 | 74 | 1009.2 |
| 20260506215037 | 70 | 220 | 2.0 | 6.0 | 0.00 | 0.21 | 0.21 | 74 | 1008.7 |
| 20260506215017 | 70 | 221 | 2.0 | 6.0 | 0.00 | 0.21 | 0.21 | 74 | 1009.1 |
| 20260506214017 | 70 | 206 | 4.0 | 9.0 | 0.00 | 0.21 | 0.21 | 74 | 1009.2 |
| 20260506213038 | 70 | 221 | 2.0 | 8.0 | 0.00 | 0.21 | 0.21 | 74 | 1008.8 |
| 20260506213017 | 70 | 222 | 2.0 | 7.0 | 0.00 | 0.21 | 0.21 | 74 | 1009.2 |
| 20260506212017 | 70 | 225 | 3.0 | 11.0 | 0.00 | 0.21 | 0.21 | 74 | 1009.1 |
| 20260506211037 | 70 | 229 | 2.0 | 9.0 | 0.00 | 0.21 | 0.21 | 74 | 1008.7 |
| 20260506211017 | 70 | 228 | 2.0 | 8.0 | 0.00 | 0.21 | 0.21 | 74 | 1009.0 |
| 20260506210117 | 70 | 207 | 4.0 | 11.0 | 0.00 | 0.21 | 0.21 | 74 | 1008.6 |
| 20260506210017 | 70 | 208 | 4.0 | 11.0 | 0.00 | 0.21 | 0.21 | 74 | 1009.0 |
| 20260506205057 | 70 | 198 | 3.0 | 11.0 | 0.00 | 0.21 | 0.21 | 74 | 1008.6 |
| 20260506205016 | 70 | 198 | 3.0 | 11.0 | 0.00 | 0.21 | 0.21 | 74 | 1008.9 |
| 20260506204158 | 70 | 205 | 3.0 | 10.0 | 0.00 | 0.21 | 0.21 | 74 | 1008.6 |
| 20260506204037 | 70 | 205 | 3.0 | 6.0 | 0.00 | 0.21 | 0.21 | 74 | 1009.0 |
| 20260506203036 | 70 | 193 | 3.0 | 8.0 | 0.00 | 0.21 | 0.21 | 74 | 1008.6 |
| 20260506203016 | 70 | 195 | 3.0 | 7.0 | 0.00 | 0.21 | 0.21 | 74 | 1009.0 |
| 20260506202037 | 70 | 208 | 2.0 | 7.0 | 0.00 | 0.21 | 0.21 | 74 | 1008.9 |
| 20260506202017 | 70 | 207 | 3.0 | 9.0 | 0.00 | 0.21 | 0.21 | 74 | 1008.5 |
| 20260506201017 | 69 | 217 | 2.0 | 9.0 | 0.00 | 0.21 | 0.21 | 75 | 1008.7 |
| 20260506201015 | 69 | 216 | 2.0 | 9.0 | 0.00 | 0.21 | 0.21 | 75 | 1009.0 |
| 20260506200117 | 69 | 223 | 2.0 | 11.0 | 0.00 | 0.21 | 0.21 | 76 | 1008.6 |
| 20260506200017 | 69 | 228 | 2.0 | 11.0 | 0.00 | 0.21 | 0.21 | 76 | 1008.9 |
| 20260506195137 | 69 | 209 | 4.0 | 12.0 | 0.00 | 0.21 | 0.21 | 76 | 1008.7 |
| 20260506195037 | 69 | 208 | 4.0 | 12.0 | 0.00 | 0.21 | 0.21 | 76 | 1009.1 |